RH
87 79 64 56 53 57 42 34 36 25 24 34 32 30 30 28 25 27 20 17 20 20 23 30 24 26 24 26 25 20 20 22 23 25 18 16 16 14 16 16 16 16 17 22 37
86 79 68 69 72 61 43 35 34 24 24 34 32 30 30 29 39 23 18 19 15 16 24 18 15 17 17 25 26 19 18 16 14 14 13 16 18 16 16 13 13 14 14 22 32
83 81 70 62 64 59 42 37 29 24 26 34 32 30 30 30 28 14 17 19 15 16 26 19 16 15 18 21 23 24 16 18 16 13 17 19 20 19 16 15 16 18 15 16 20
78 79 65 57 64 64 43 37 28 22 28 34 32 31 29 35 21 19 20 18 16 18 18 15 14 16 18 17 20 20 19 21 22 22 22 20 20 18 19 16 16 17 18 18 17
77 68 79 74 64 52 46 37 28 21 31 33 31 32 34 23 16 19 22 20 17 19 14 14 15 16 17 16 19 20 17 18 18 21 21 21 20 20 18 17 15 18 21 21 21
86 82 82 71 74 58 39 33 26 20 33 32 31 33 36 22 17 21 23 20 19 16 16 15 15 16 18 19 19 17 18 17 18 18 19 20 19 21 16 16 17 19 22 22 26
86 80 78 76 65 35 34 27 24 22 34 31 33 35 28 18 18 21 20 18 18 17 16 18 17 16 18 19 19 20 19 15 18 18 18 20 18 19 17 16 17 18 20 24 26
84 86 76 67 76 46 34 30 23 35 35 32 34 46 22 18 18 23 19 19 18 18 19 20 19 19 18 20 18 18 19 18 17 16 20 20 13 16 17 15 18 18 19 22 24
80 77 71 69 73 30 25 23 28 39 34 33 39 34 21 19 20 20 20 17 20 20 20 20 19 20 21 18 17 19 15 18 17 16 16 18 15 16 18 17 18 18 18 20 22
76 67 61 73 56 28 25 34 39 38 38 40 47 29 20 19 20 20 20 19 18 19 19 20 20 20 20 18 15 16 18 19 19 16 17 18 18 16 19 19 18 18 18 20 23
60 62 59 61 40 29 35 41 46 40 52 26 24 21 18 20 20 20 20 18 18 18 22 23 20 18 14 16 18 20 21 21 18 19 24 21 21 20 22 19 19 18 19 22 26
63 64 53 44 43 41 46 39 27 24 32 30 26 24 23 19 20 19 20 19 21 23 22 22 20 15 20 21 23 24 23 20 18 20 23 21 21 22 21 21 19 19 20 23 25
65 60 49 45 53 55 51 39 28 33 26 25 26 23 21 18 18 19 18 19 21 24 21 18 18 23 23 25 26 23 22 19 20 21 23 25 24 24 22 23 25 22 22 24 24
69 61 55 45 60 49 47 30 30 35 26 22 27 26 23 18 22 19 18 18 20 20 22 20 22 23 23 23 22 21 19 21 23 24 20 24 16 24 21 23 24 24 22 25 28
66 64 49 44 45 43 30 28 27 24 32 22 28 24 22 21 23 22 21 18 21 21 22 18 23 25 24 21 21 23 24 24 27 24 26 26 22 19 21 23 23 21 24 28 29
55 72 52 66 51 40 36 31 26 28 32 28 26 27 26 23 24 23 21 19 19 21 22 20 21 20 19 23 22 27 25 28 30 27 27 23 26 22 23 19 20 20 23 27 29
57 53 61 50 36 39 37 26 30 31 22 30 31 28 26 27 27 24 25 25 24 29 28 24 24 23 23 23 26 24 24 23 22 30 23 30 30 19 19 19 18 21 21 24 27
56 55 59 46 40 42 31 28 31 22 23 28 31 30 30 27 27 27 27 27 25 23 25 27 26 26 24 21 22 25 24 19 21 18 20 29 26 19 19 21 20 18 20 23 26
63 81 61 46 48 41 29 35 22 26 21 30 30 32 30 29 28 28 26 24 22 22 23 26 27 27 26 24 24 28 28 21 24 32 28 20 20 19 24 26 24 23 24 26 27
77 68 56 44 48 37 36 34 31 25 29 29 28 27 30 29 28 30 28 23 25 23 20 22 27 29 28 25 27 26 24 27 24 27 27 22 24 18 26 26 24 26 26 28 30
56 47 59 46 46 42 48 35 35 29 28 29 29 31 28 31 26 27 26 26 25 30 23 22 22 30 28 29 26 29 26 27 25 26 24 24 18 18 19 22 25 23 25 29 33
56 47 75 50 52 49 50 39 36 32 34 30 30 28 28 31 30 29 27 27 26 27 26 21 23 27 24 27 26 26 23 22 22 27 29 28 22 19 20 21 22 23 29 32 34
53 74 70 59 51 60 54 44 37 32 31 30 30 29 26 31 33 30 31 30 31 28 27 25 26 27 27 29 28 28 26 24 27 27 26 26 19 26 23 24 24 26 31 36 36
65 74 70 58 55 46 51 49 45 38 30 28 28 29 29 29 30 30 29 36 31 28 39 28 28 22 18 18 24 30 29 28 25 27 24 26 19 21 25 27 26 28 32 35 35
61 59 57 70 67 50 42 47 46 41 36 31 33 29 27 30 31 28 31 37 37 46 32 27 28 27 24 23 27 25 26 30 31 24 27 20 20 19 20 25 26 28 31 37 36
64 65 68 63 55 50 55 49 45 41 37 35 35 30 30 26 23 27 29 32 28 39 33 37 30 34 32 38 33 35 30 28 29 26 25 27 28 20 20 22 23 28 38 38 38
77 71 50 74 58 49 50 45 46 39 40 32 32 32 39 32 25 26 27 28 28 30 33 37 37 38 31 47 46 46 37 32 30 30 29 34 27 30 35 36 31 31 38 35 41
Wind_Speed
11 10 10 11 9 9 7 8 8 6 6 7 8 9 11 13 12 4 7 3 5 9 7 8 4 3 3 3 2 1 4 5 6 5 2 4 4 1 2 8 5 5 8 4 2
13 12 11 12 11 9 9 7 9 6 7 8 8 9 11 14 9 8 5 6 6 8 7 5 4 2 3 3 2 3 4 3 2 4 4 5 6 7 5 8 10 7 4 4 4
15 13 12 12 11 11 9 7 8 7 7 8 9 9 11 11 7 4 11 10 8 8 5 5 5 1 2 1 2 2 4 1 4 7 6 6 7 3 6 7 2 9 10 7 6
15 15 14 14 13 12 10 7 7 8 7 7 9 10 12 3 5 3 9 13 9 8 7 7 3 1 1 2 2 5 5 5 2 2 3 5 4 6 8 5 10 6 8 9 9
15 15 14 13 13 11 9 9 7 7 7 8 8 9 4 5 5 2 10 13 10 8 5 4 2 2 1 1 2 7 4 3 6 7 7 6 9 8 6 4 6 4 4 6 6
15 15 15 14 14 11 9 8 7 7 7 7 9 8 4 7 3 4 10 13 8 7 5 4 2 2 1 2 5 1 5 9 6 7 5 4 1 2 3 5 3 6 8 8 9
15 15 15 14 14 10 8 8 7 7 7 7 8 6 5 7 2 8 10 6 7 4 5 3 5 4 4 2 0 3 8 6 4 1 1 3 5 6 4 3 5 8 9 10 11
15 15 14 14 14 9 7 8 7 7 7 7 7 2 6 5 7 9 10 5 7 5 6 6 5 4 2 3 2 4 4 4 4 2 2 3 2 7 4 4 5 7 8 10 13
15 15 13 15 13 9 6 6 6 7 7 6 3 4 5 3 5 10 9 7 8 7 7 7 3 1 4 4 4 3 4 4 2 2 1 3 6 2 4 3 5 6 7 8 12
15 14 14 15 12 9 7 6 4 6 4 3 3 4 7 5 6 8 10 12 4 9 5 2 2 5 4 5 4 2 4 3 6 2 4 9 12 5 5 7 9 7 7 9 12
15 15 14 13 11 10 10 4 3 4 6 9 7 4 1 4 6 4 7 9 6 5 7 2 6 8 5 6 3 2 4 9 5 1 3 3 9 7 0 12 11 8 8 10 11
16 16 14 12 11 13 14 5 6 0 5 22 8 9 4 3 4 6 10 10 8 10 6 4 11 6 1 5 6 5 6 10 5 2 3 3 6 3 8 9 9 9 9 10 12
17 16 14 14 13 15 15 16 3 3 5 4 11 9 5 8 5 12 13 6 7 9 11 11 2 6 5 7 8 7 9 7 7 1 3 5 4 7 5 6 6 5 6 7 10
18 18 18 17 9 11 10 24 12 4 4 7 7 6 7 7 6 1 11 4 4 10 7 7 2 6 6 7 9 9 4 5 4 4 3 2 1 10 12 10 8 8 9 9 9
19 19 21 23 5 9 6 18 16 3 5 6 4 3 5 10 8 3 1 2 9 9 6 3 7 6 5 2 9 3 5 2 3 6 4 5 5 9 12 13 14 11 11 10 9
20 21 23 22 4 8 9 18 8 4 7 4 4 6 9 4 3 4 5 3 2 5 2 4 1 3 1 4 3 10 3 2 2 4 5 3 4 8 12 18 16 13 12 11 10
22 23 26 18 4 10 19 9 5 6 2 5 4 6 11 7 5 6 11 11 9 7 12 6 11 3 2 5 5 5 4 3 4 4 1 2 4 4 10 7 17 17 15 13 11
22 23 24 15 8 17 9 6 7 4 5 3 3 7 8 8 4 4 9 10 8 6 3 9 6 9 6 6 1 9 4 4 4 2 1 2 5 2 3 2 5 11 13 12 11
23 18 12 20 8 15 9 10 7 4 4 8 4 4 6 4 3 6 9 8 10 13 7 6 3 2 1 2 1 6 6 2 1 1 3 1 3 5 4 5 9 12 11 11 10
16 12 6 15 14 10 8 9 3 2 4 3 6 5 10 10 8 10 11 5 5 13 4 4 4 1 3 2 5 2 5 2 3 3 4 3 5 5 9 10 13 13 12 10 7
13 5 7 18 16 5 11 9 4 4 4 5 6 4 4 6 9 8 6 3 4 7 7 5 2 4 3 7 8 4 4 2 2 3 3 4 3 5 11 16 18 15 11 10 10
9 5 6 25 8 5 12 8 4 4 2 3 2 2 7 9 8 7 7 3 5 10 8 4 1 4 2 3 2 2 4 9 5 5 2 3 7 4 8 17 17 15 11 11 10
6 3 2 2 10 7 2 6 3 4 5 5 5 3 3 6 4 5 4 2 6 6 6 8 4 4 3 2 2 4 5 4 1 1 10 6 4 1 5 13 12 13 12 13 10
5 5 3 4 2 13 11 8 9 4 3 3 2 3 3 2 1 5 4 2 4 3 2 5 3 6 7 2 4 5 8 11 11 7 9 14 16 6 9 16 14 12 12 13 10
4 5 6 9 10 8 15 11 12 10 4 4 2 5 6 4 3 3 2 3 2 4 3 4 6 5 6 2 3 5 8 13 15 18 13 19 18 15 12 16 19 14 13 13 10
5 4 2 4 14 10 10 10 15 13 9 7 5 11 8 8 7 8 7 4 4 4 5 2 5 3 4 2 7 9 13 14 17 19 19 20 24 19 13 8 12 14 13 12 9
3 0 3 7 14 14 12 12 9 9 7 4 12 7 6 12 7 2 1 3 2 5 10 6 6 5 7 0 5 10 20 20 15 13 12 15 18 2 5 8 11 13 13 11 9
Wind_Direction
251 254 257 257 258 265 259 270 281 278 270 285 302 312 316 315 310 267 243 209 180 171 150 139 124 114 111 99 56 252 241 245 248 231 230 175 256 227 294 267 242 230 280 356 338
259 248 250 246 247 256 254 263 276 273 268 284 301 312 318 321 295 240 235 182 156 161 162 173 137 137 122 115 126 246 249 258 274 243 243 279 275 305 271 262 271 269 247 289 296
253 252 246 250 251 255 255 260 277 275 262 288 303 314 319 323 270 204 195 178 167 162 157 127 119 108 135 198 159 152 260 218 243 248 282 291 280 253 284 280 19 312 307 315 285
247 250 239 239 246 248 251 257 264 266 261 287 304 314 321 301 219 144 178 174 168 161 144 137 138 146 195 215 151 246 251 249 300 244 271 275 307 280 269 294 332 336 323 309 301
244 244 244 238 239 246 246 253 253 259 261 284 301 314 333 232 260 257 176 174 166 162 167 152 167 139 245 198 203 242 277 244 262 268 260 273 273 271 275 349 341 4 5 351 336
238 244 242 240 237 237 242 253 254 245 255 285 297 311 258 242 243 179 167 168 174 163 147 162 156 170 205 218 231 297 268 278 275 266 236 258 221 273 125 350 53 55 39 27 18
231 237 240 235 238 230 246 255 250 235 255 276 292 300 249 249 221 187 171 189 174 177 148 128 147 208 156 198 56 294 292 293 211 99 254 238 211 203 83 16 68 54 47 40 36
229 231 239 242 241 233 233 244 238 241 253 273 285 241 255 239 213 183 173 142 140 124 112 120 124 104 270 122 190 261 260 243 144 333 108 267 230 153 99 14 77 63 53 45 45
227 228 231 239 238 233 237 242 234 252 261 266 257 241 250 219 201 198 183 165 128 102 86 107 101 104 176 229 248 201 273 259 250 83 296 244 287 142 209 339 125 91 65 57 56
226 223 222 232 223 208 201 210 236 257 232 205 246 222 231 210 162 169 183 158 144 134 126 147 157 224 203 209 266 227 242 243 266 123 280 271 262 281 287 207 149 123 92 74 64
220 219 216 218 208 191 171 144 178 209 218 208 189 240 119 112 131 165 161 148 133 185 212 138 229 232 245 230 291 241 263 269 268 10 289 262 294 324 320 160 145 132 115 93 76
216 215 208 202 197 182 179 226 212 2 221 230 236 242 259 213 151 161 167 184 190 209 153 198 242 276 243 191 189 211 260 270 273 188 284 288 312 71 144 131 134 139 127 113 107
212 207 200 191 190 190 196 215 254 226 263 198 213 222 203 191 222 183 183 172 192 191 202 235 76 125 168 165 189 206 239 266 285 254 238 277 201 165 158 146 136 140 131 123 116
207 202 190 177 177 193 217 220 233 237 261 204 193 205 175 184 231 93 185 174 169 216 187 243 121 211 224 238 232 260 230 234 234 255 270 273 264 193 179 175 182 166 162 145 131
204 198 191 173 163 179 202 208 202 211 262 122 152 118 136 189 124 160 149 182 192 170 192 148 175 186 205 220 191 67 111 175 257 253 282 189 238 135 183 197 188 183 166 157 140
201 197 184 193 223 204 184 157 168 210 245 152 135 160 155 156 135 123 163 85 73 149 239 265 324 214 188 107 162 132 125 152 203 244 240 122 252 176 188 205 188 181 178 166 162
194 191 186 188 219 182 154 156 175 228 88 172 178 171 175 160 149 174 172 186 191 190 225 213 228 177 206 194 133 180 221 249 214 209 308 114 226 313 189 199 194 186 181 175 169
189 185 192 188 211 164 156 171 206 213 197 114 130 141 176 164 177 153 158 187 212 209 148 203 198 182 170 224 193 193 237 267 281 268 73 150 240 107 153 219 221 198 179 171 177
179 175 197 204 195 170 176 201 209 196 154 158 118 148 180 188 205 172 203 212 203 199 213 181 154 119 62 109 244 144 215 27 160 129 258 203 251 218 187 213 199 188 175 182 182
152 165 194 192 184 165 196 208 226 190 146 174 191 203 185 183 183 194 185 188 205 204 235 183 132 62 108 132 75 257 126 190 210 252 248 198 259 236 191 180 172 176 185 177 177
149 170 172 166 154 187 205 205 206 221 208 184 203 157 194 178 202 190 183 168 201 169 204 175 239 120 174 205 183 154 200 212 300 267 276 292 250 198 196 175 173 177 176 174 173
150 178 164 154 182 193 206 206 167 185 168 225 146 140 181 172 176 207 207 244 156 152 175 174 193 186 185 56 351 295 245 215 241 183 237 309 275 180 215 183 178 169 166 169 162
147 107 153 165 200 189 147 198 224 184 199 190 188 207 182 174 175 200 187 96 159 165 153 173 201 180 173 166 179 230 192 216 213 295 226 252 257 73 198 191 191 181 170 169 165
152 142 143 213 307 183 172 193 204 205 205 175 164 135 150 155 255 173 189 123 150 174 95 167 180 246 263 24 115 191 200 210 218 242 249 236 270 229 203 197 195 192 180 177 174
192 177 168 186 198 187 187 167 192 204 218 197 161 210 183 175 154 194 136 130 100 141 123 206 231 215 261 241 221 249 218 204 210 234 242 269 275 269 241 220 209 189 179 179 171
172 158 123 149 165 168 179 193 193 195 171 202 212 202 188 196 197 197 170 193 202 157 177 176 214 185 253 235 247 254 247 242 231 247 256 266 273 280 257 274 233 200 176 176 170
155 100 171 148 172 180 196 191 186 168 219 215 208 208 213 230 242 50 102 114 160 180 184 179 178 184 255 229 282 262 238 233 233 229 244 251 267 261 212 212 209 191 172 168 164